User: anonymous
Location: Limerick
(52.6800°N, 8.6400°W)
Time: 09:25:10
(UTC+01:00)
Language:

Sapphire - Orbit

View from above orbital plane
View from above orbital plane
View from above satellite
View from above satellite

Ground track
Ground track

The orbit data is extracted from the following two-line orbital elements,

1 26932U 01043D   14204.45796642 -.00000008  00000-0  28965-4 0  6646
2 26932 067.0580 305.9151 0005421 293.1298 066.9231 14.30016481668836
Epoch (UTC): 23 July 2014 10:59:28
Eccentricity: 0.0005421
inclination: 67.0580°
perigee height: 788 km
apogee height: 795 km
right ascension of ascending node: 305.9151°
argument of perigee: 293.1298°
revolutions per day: 14.30016481
mean anomaly at epoch: 66.9231°
orbit number at epoch: 66883

The dashed part of the orbit path shows where the satellite is in the earth's shadow,  

DLR